Location: Roc des P�zouls
(43.9667°N, 3.5500°E)
Time: 13:33:09
(UTC+00:00)

Cosmos 1328 Rocket - Pass Details

Date: 14 November 2019
Orbit: 600 x 628 km, 82.5° (Epoch: 15 December)

Event Time Altitude Azimuth Distance (km) Brightness Sun altitude
Rises 05:14:39 0° 354° (N) 2,883 6.8 -15.2°
Reaches altitude 10° 05:16:55 10° 358° (N) 1,970 6.0 -14.8°
Maximum altitude 05:21:13 62° 79° (E) 683 4.0 -14.1°
Drops below altitude 10° 05:25:29 10° 161° (SSE) 1,941 6.5 -13.3°
Sets 05:27:42 0° 165° (SSE) 2,837 7.4 -12.9°
